Simultaneous Nadir Overpasses (SNOs) Predictions

Prediction of SNOs between NOAA-19 and TERRA Satellite Orbit:

Table of predicted SNOs for the next 14.0 days since TLE Epoch: 2/25/2023
Index Date (NOAA-19) Time (NOAA-19) Lat,Lon (NOAA-19) SZA (NOAA-19 ) Date (TERRA) Time (TERRA) Lat,Lon (TERRA) SZA (TERRA ) Distance(km) Time Diff (sec)
1 02/27/2023 05:02:20 80.93, 139.46 90.68 02/27/2023 05:02:14 80.92, 139.35 90.65 2.46 6
2 03/01/2023 08:52:55 -80.93, -98.18 90.14 03/01/2023 08:52:56 -80.94, -98.08 90.12 2.18 1
3 03/03/2023 12:43:40 80.93, 24.32 89.07 03/03/2023 12:43:37 80.93, 24.15 89.06 2.95 3
4 03/05/2023 16:34:15 -80.93, 146.57 91.76 03/05/2023 16:34:19 -80.94, 146.51 91.76 1.39 4
5 03/07/2023 20:25:00 80.93, -91.09 87.42 03/07/2023 20:24:59 80.93, -91.27 87.41 3.21 1



Historial Predications of SNOs between NOAA-19 and TERRA
